Location: Seale
(32.2974°N, 85.1688°W)
Time: 11:08:42
(UTC+00:00)

Hubble Space Telescope - Pass Details

Date: 23 January 2021
Orbit: 535 x 539 km, 28.5° (Epoch: 08 March)

Event Time Altitude Azimuth Distance (km) Brightness Sun altitude
Rises 23:49:41 0° 263° (W) 2,673 6.4 -9.5°
Reaches altitude 10° 23:52:00 10° 258° (WSW) 1,783 5.1 -10.0°
Maximum altitude 23:55:59 48° 183° (S) 698 1.5 -10.8°
Enters shadow 23:59:43 12° 110° (ESE) 1,688 2.8 -11.5°
